Find Starlink 11274

NORAD ID: 61001 Int'l Des: 2024-158 Owner: SPXS Country: US Constellation: starlink operational
LEOCIRCULAR

当前视图

正在加载3D地球...

About Starlink 11274

Starlink 11274 (NORAD 61001) is a starlink constellation satellite (v2 mini d2c) launched Sep 5, 2024 by SPXS of US. It operates in LEO, CIRCULAR orbit with a mass of 960.00 kg.

关于 Starlink 11274

正在加载描述...

即将过境

Passes for default location (London). Set your location on the main map for personalized predictions.

高度历史

Loading altitude history...

两行轨道根数

1 61001U 24158M 26171.30989163 -.00000550 00000-0 32447-6 0 9991
2 61001 53.1599 135.2834 0001410 112.0488 248.0680 15.69706878103704
Epoch: Jun 20, 2026 • Age: 29 hours

当前状态

高度 377.8 km
速度 7.68 km/s
星下点 -50.35°S, 76.56°W
发射日期 Sep 5, 2024
运行时间 1.7 years
类型 internet

技术详情

分类 Payload
质量 960.00 kg
干质量 910.00 kg
总质量 960.00 kg
长度 0.30 m
直径 4.10 m
跨度 29.00 m
形状 Box + pan
制造商 SPXS
平台类型 Starlink V2MD
阶段状态 In Orbit
所有者/国家 SPXS/US

Most Searched